STARLINK-37263

Last updated on Sun Apr 12 2026 00:02:09 GMT+0000 (Coordinated Universal Time)

1 68544U 26070C 26101.50002315 -.01140755 40384-3 -27337-2 0 9999 2 68544 53.1580 220.2805 0000987 55.5277 110.2597 15.95877151 2652
UTC large
Height (km)
Speed (km/s)
/
Latitude / Longitude
Inclination (degrees)
Orbital Period (minutes)
Azimuth
Elevation
Range (km)
Doppler Factor

Next 0 passes for location: London (51.5072 / 0.1276)

Sorry there are no passes over London.
STARLINK-37263